Location: Pony
(45.6596°N, 111.8933°W)
Time: 12:40:26
(UTC+00:00)

X-37B - Visible Passes

Search period start: 26 January 2022 00:00
Search period end: 05 February 2022 00:00
Orbit: 334 x 337 km, 45.0° (Epoch: 11 January)

Date Brightness Start Highest point End Pass type
(mag) Time Alt. Az. Time Alt. Az. Time Alt. Az.
26 Jan 3.1 02:07:26 10° S 02:07:37 11° S 02:07:37 11° S visible
27 Jan 2.8 02:26:26 10° SSW 02:27:26 17° SSW 02:27:26 17° SSW visible
28 Jan 2.8 01:12:53 10° S 01:14:07 12° SSE 01:15:21 10° ESE visible
28 Jan 3.2 02:46:23 10° WSW 02:47:10 17° SW 02:47:10 17° SW visible
29 Jan 1.8 01:31:53 10° SSW 01:34:16 25° SSE 01:35:38 17° ESE visible
29 Jan 3.9 03:06:41 10° WSW 03:06:51 11° WSW 03:06:51 11° WSW visible
30 Jan 0.9 01:51:49 10° WSW 01:54:33 46° SSE 01:55:16 36° ESE visible
31 Jan 0.3 02:12:07 10° WSW 02:14:53 70° S 02:14:53 70° S visible
01 Feb 1.7 02:32:32 10° W 02:34:29 39° W 02:34:29 39° W visible
02 Feb 0.4 01:17:32 10° WSW 01:20:22 71° S 01:22:51 13° E visible
02 Feb 3.0 02:52:58 10° W 02:54:05 21° W 02:54:05 21° W visible
03 Feb 0.3 01:37:57 10° W 01:40:48 81° S 01:42:28 22° E visible
03 Feb 3.9 03:13:27 10° W 03:13:42 12° W 03:13:42 12° W visible
04 Feb 0.4 01:58:24 10° W 02:01:14 68° S 02:02:08 38° ESE visible
